When you browse on this site, cookies collect data to enhance your experience and personalize the content and advertising you see.
Visit our Privacy Policy to learn more. By continuing to use the site, you agree to this use of cookies and data.
  • In Romania
  • List of Countries
  • For 7 days
  • Water Temperature
  • Weather Map
  • Weather Widgets
  • user-avatar
    Login

    Hourly Weather Nha Trang

    Today, 20 August, Tuesday

    Time Temperature Precipitation Wind Pressure Humidity
    00:00 +28°C° 0.2 mm 2 mps 745 mmHg 85%
    01:00 +28°C° 0 mm 2 mps 744 mmHg 85%
    02:00 +28°C° 0 mm 2 mps 744 mmHg 85%
    03:00 +28°C° 0 mm 2 mps 744 mmHg 85%
    04:00 +27°C° 0 mm 2 mps 744 mmHg 84%
    05:00 +28°C° 0.1 mm 1 mps 744 mmHg 82%
    06:00 +29°C° 0.1 mm 1 mps 744 mmHg 79%
    07:00 +29°C° 0 mm 1 mps 745 mmHg 79%
    08:00 +31°C° 0 mm 1 mps 745 mmHg 71%
    09:00 +33°C° 0 mm 1 mps 745 mmHg 64%
    10:00 +35°C° 0 mm 1 mps 745 mmHg 57%
    11:00 +36°C° 0.4 mm 2 mps 744 mmHg 59%
    12:00 +36°C° 0.4 mm 2 mps 744 mmHg 61%
    13:00 +35°C° 0.4 mm 3 mps 743 mmHg 63%
    14:00 +35°C° 0.6 mm 3 mps 743 mmHg 68%
    15:00 +34°C° 0.6 mm 3 mps 742 mmHg 73%
    16:00 +32°C° 0.6 mm 2 mps 742 mmHg 78%
    17:00 +31°C° 0.4 mm 2 mps 743 mmHg 82%
    18:00 +30°C° 0.4 mm 2 mps 743 mmHg 85%
    19:00 +29°C° 0.4 mm 1 mps 744 mmHg 88%
    20:00 +29°C° 0.2 mm 2 mps 744 mmHg 88%
    21:00 +29°C° 0.2 mm 2 mps 745 mmHg 89%
    22:00 +28°C° 0.2 mm 2 mps 745 mmHg 89%
    23:00 +28°C° 0.1 mm 2 mps 745 mmHg 89%

    Tomorrow, 21 August, Wednesday

    Time Temperature Precipitation Wind Pressure Humidity
    00:00 +28°C° 0.1 mm 2 mps 745 mmHg 88%
    01:00 +27°C° 0.1 mm 2 mps 744 mmHg 88%
    02:00 +27°C° 0.3 mm 2 mps 744 mmHg 89%
    03:00 +27°C° 0.3 mm 2 mps 744 mmHg 89%
    04:00 +27°C° 0.3 mm 2 mps 744 mmHg 89%
    05:00 +27°C° 0.1 mm 2 mps 744 mmHg 87%
    06:00 +27°C° 0.1 mm 2 mps 745 mmHg 86%
    07:00 +28°C° 0.1 mm 2 mps 745 mmHg 84%
    08:00 +30°C° 0 mm 1 mps 745 mmHg 76%
    09:00 +32°C° 0 mm 1 mps 745 mmHg 68%
    10:00 +33°C° 0 mm 1 mps 746 mmHg 60%
    11:00 +35°C° 0.2 mm 2 mps 745 mmHg 60%
    12:00 +35°C° 0.2 mm 2 mps 745 mmHg 61%
    13:00 +35°C° 0.2 mm 3 mps 744 mmHg 61%
    14:00 +35°C° 0.5 mm 2 mps 744 mmHg 64%
    15:00 +34°C° 0.5 mm 2 mps 743 mmHg 67%
    16:00 +34°C° 0.5 mm 2 mps 743 mmHg 70%
    17:00 +32°C° 0.2 mm 2 mps 743 mmHg 75%
    18:00 +31°C° 0.2 mm 1 mps 744 mmHg 79%
    19:00 +29°C° 0.2 mm 1 mps 744 mmHg 84%
    20:00 +29°C° 0 mm 1 mps 745 mmHg 84%
    21:00 +29°C° 0 mm 2 mps 746 mmHg 84%
    22:00 +28°C° 0 mm 2 mps 746 mmHg 84%
    23:00 +28°C° 0.1 mm 2 mps 746 mmHg 82%

    Day after tomorrow, 22 August, Thursday

    Time Temperature Precipitation Wind Pressure Humidity
    00:00 +28°C° 0.1 mm 2 mps 746 mmHg 81%
    01:00 +27°C° 0.1 mm 2 mps 745 mmHg 80%
    02:00 +27°C° 0 mm 2 mps 745 mmHg 79%
    03:00 +27°C° 0 mm 2 mps 745 mmHg 78%
    04:00 +27°C° 0 mm 2 mps 745 mmHg 77%
    05:00 +28°C° 0 mm 2 mps 745 mmHg 75%
    06:00 +28°C° 0 mm 2 mps 745 mmHg 73%
    07:00 +29°C° 0 mm 1 mps 746 mmHg 72%
    08:00 +31°C° 0 mm 1 mps 746 mmHg 65%
    09:00 +33°C° 0 mm 1 mps 746 mmHg 58%
    10:00 +35°C° 0 mm 1 mps 746 mmHg 51%
    11:00 +36°C° 0.1 mm 2 mps 745 mmHg 54%
    12:00 +36°C° 0.1 mm 3 mps 745 mmHg 57%
    13:00 +35°C° 0.1 mm 3 mps 745 mmHg 59%
    14:00 +35°C° 0.2 mm 3 mps 744 mmHg 63%
    15:00 +34°C° 0.2 mm 3 mps 744 mmHg 66%
    16:00 +34°C° 0.2 mm 3 mps 743 mmHg 69%
    17:00 +31°C° 0.4 mm 2 mps 744 mmHg 74%
    18:00 +30°C° 0.4 mm 2 mps 744 mmHg 79%
    19:00 +29°C° 0.4 mm 1 mps 745 mmHg 85%
    20:00 +29°C° 0 mm 1 mps 745 mmHg 84%
    21:00 +28°C° 0 mm 2 mps 746 mmHg 84%
    22:00 +28°C° 0 mm 2 mps 746 mmHg 84%
    23:00 +28°C° 0 mm 2 mps 746 mmHg 83%

    23 August, Friday

    Time Temperature Precipitation Wind Pressure Humidity
    00:00 +27°C° 0 mm 2 mps 746 mmHg 83%
    01:00 +27°C° 0 mm 2 mps 746 mmHg 83%
    02:00 +27°C° 0.1 mm 2 mps 746 mmHg 82%
    03:00 +27°C° 0.1 mm 2 mps 745 mmHg 82%
    04:00 +27°C° 0.1 mm 2 mps 745 mmHg 82%
    05:00 +27°C° 0 mm 2 mps 745 mmHg 79%
    06:00 +28°C° 0 mm 1 mps 746 mmHg 77%
    07:00 +29°C° 0 mm 1 mps 746 mmHg 74%
    08:00 +31°C° 0 mm 1 mps 746 mmHg 67%
    09:00 +32°C° 0 mm 1 mps 746 mmHg 60%
    10:00 +34°C° 0 mm 1 mps 747 mmHg 53%
    11:00 +36°C° 0 mm 2 mps 746 mmHg 54%
    12:00 +36°C° 0 mm 3 mps 745 mmHg 54%
    13:00 +36°C° 0 mm 3 mps 745 mmHg 55%
    14:00 +35°C° 0.6 mm 3 mps 744 mmHg 62%
    15:00 +32°C° 0.6 mm 2 mps 744 mmHg 68%
    16:00 +31°C° 0.6 mm 2 mps 743 mmHg 75%
    17:00 +30°C° 0.6 mm 2 mps 744 mmHg 78%
    18:00 +29°C° 0.6 mm 2 mps 744 mmHg 81%
    19:00 +29°C° 0.6 mm 1 mps 745 mmHg 84%
    20:00 +28°C° 0 mm 2 mps 745 mmHg 84%
    21:00 +28°C° 0 mm 2 mps 746 mmHg 85%
    22:00 +28°C° 0 mm 2 mps 747 mmHg 85%
    23:00 +28°C° 0 mm 2 mps 746 mmHg 84%

    24 August, Saturday

    Time Temperature Precipitation Wind Pressure Humidity
    00:00 +27°C° 0 mm 2 mps 746 mmHg 82%
    01:00 +27°C° 0 mm 2 mps 746 mmHg 81%
    02:00 +27°C° 0 mm 2 mps 745 mmHg 80%
    03:00 +27°C° 0 mm 1 mps 745 mmHg 79%
    04:00 +27°C° 0 mm 1 mps 745 mmHg 77%
    05:00 +28°C° 0 mm 1 mps 745 mmHg 76%
    06:00 +28°C° 0 mm 1 mps 745 mmHg 74%
    07:00 +29°C° 0 mm 1 mps 746 mmHg 72%
    08:00 +30°C° 0 mm 1 mps 746 mmHg 69%
    09:00 +31°C° 0 mm 1 mps 746 mmHg 65%
    10:00 +32°C° 0 mm 1 mps 746 mmHg 62%
    11:00 +33°C° 0.1 mm 1 mps 746 mmHg 61%
    12:00 +34°C° 0.1 mm 2 mps 745 mmHg 60%
    13:00 +35°C° 0.1 mm 2 mps 744 mmHg 59%
    14:00 +35°C° 0.3 mm 2 mps 744 mmHg 60%
    15:00 +34°C° 0.3 mm 2 mps 744 mmHg 62%
    16:00 +34°C° 0.3 mm 2 mps 743 mmHg 63%
    17:00 +32°C° 0.1 mm 2 mps 744 mmHg 69%
    18:00 +30°C° 0.1 mm 2 mps 744 mmHg 76%
    19:00 +29°C° 0.1 mm 2 mps 744 mmHg 82%
    20:00 +29°C° 0.1 mm 2 mps 745 mmHg 82%
    21:00 +29°C° 0.1 mm 2 mps 745 mmHg 82%
    22:00 +28°C° 0.1 mm 2 mps 746 mmHg 83%
    23:00 +28°C° 0.7 mm 2 mps 745 mmHg 84%

    25 August, Sunday

    Time Temperature Precipitation Wind Pressure Humidity
    00:00 +28°C° 0.7 mm 2 mps 745 mmHg 85%
    01:00 +27°C° 0.7 mm 2 mps 745 mmHg 86%
    02:00 +27°C° 1.3 mm 2 mps 745 mmHg 87%
    03:00 +27°C° 1.3 mm 2 mps 744 mmHg 88%
    04:00 +26°C° 1.3 mm 2 mps 744 mmHg 89%
    05:00 +27°C° 0.6 mm 2 mps 745 mmHg 88%
    06:00 +27°C° 0.6 mm 2 mps 745 mmHg 87%
    07:00 +28°C° 0.6 mm 2 mps 746 mmHg 86%
    08:00 +30°C° 0.2 mm 1 mps 746 mmHg 78%
    09:00 +31°C° 0.2 mm 1 mps 746 mmHg 70%
    10:00 +33°C° 0.2 mm 1 mps 746 mmHg 63%
    11:00 +33°C° 0.8 mm 1 mps 746 mmHg 63%
    12:00 +34°C° 0.8 mm 2 mps 745 mmHg 64%
    13:00 +34°C° 0.8 mm 2 mps 744 mmHg 65%
    14:00 +32°C° 1.5 mm 2 mps 744 mmHg 70%
    15:00 +31°C° 1.5 mm 2 mps 744 mmHg 76%
    16:00 +30°C° 1.5 mm 2 mps 743 mmHg 81%
    17:00 +30°C° 0.5 mm 2 mps 744 mmHg 83%
    18:00 +29°C° 0.5 mm 2 mps 744 mmHg 84%
    19:00 +28°C° 0.5 mm 2 mps 745 mmHg 86%
    20:00 +28°C° 0 mm 2 mps 745 mmHg 86%
    21:00 +28°C° 0 mm 2 mps 746 mmHg 86%
    22:00 +27°C° 0 mm 1 mps 746 mmHg 86%
    23:00 +27°C° 0 mm 1 mps 746 mmHg 85%
    Show more